Burgas, Bulgaria

5:54 AM EEST on July 22, 2019 (GMT +0300)
Burgas

Weather History for LBBG - July, 2019

Change the Weather History Date:

Sunday, July 21, 2019

  Actual Average Record
Temperature  
Mean Temperature 73 °F -  
Max Temperature 82 °F 83 °F 90 °F (2018)
Min Temperature 64 °F 63 °F 59 °F (1996)
Cooling Degree Days 8    
Growing Degree Days 23 (Base 50)    
Moisture  
Dew Point 63 °F    
Average Humidity 71    
Maximum Humidity 94    
Minimum Humidity 30    
Precipitation  
Precipitation 0.00 in - - ()
Sea Level Pressure  
Sea Level Pressure 30.08 in    
Wind  
Wind Speed 6 mph ()    
Max Wind Speed 27 mph    
Max Gust Speed -    
Visibility 8.2 miles    
Events      
Averages and records for this station are not official NWS values.
T = Trace of Precipitation, MM = Missing Value Source: Averaged Metar Reports

Daily Weather History Graph

Daily Weather History Graph

Search for Another Location

Airport or City:

Astronomy

Jul. 21, 2019 Rise Set
Actual Time 5:51 AM EEST 8:41 PM EEST
Civil Twilight 5:17 AM EEST 9:14 PM EEST
Nautical Twilight 4:36 AM EEST 9:56 PM EEST
Astronomical Twilight 3:47 AM EEST 10:44 PM EEST
Moon 11:22 PM EEST (7/21) 9:57 AM EEST (7/21)
Length of Visible Light 15h 56m
Length of Day
14h 50m
Waning Gibbous, 82% of the Moon is Illuminated
Jul 21
Waning Gibbous
Jul 25
Last Quarter
Aug 1
New
Aug 7
First Quarter
Aug 15
Full

Hourly Weather History & Observations

Time (EEST) Temp. Heat Index Dew Point Humidity Pressure Visibility Wind Dir Wind Speed Gust Speed Precip Events Conditions
12:00 AM 72 °F - 67 °F 79% 30.09 in 11 mi ENE 4.5 mph - -  
12:00 AM 68.0 °F - 62.6 °F 83% 30.09 in - North 1.2 mph - N/A   Clear
12:30 AM 68.0 °F - 62.6 °F 83% 30.09 in - NE 5.8 mph - N/A   Clear
1:00 AM 66.2 °F - 62.6 °F 88% 30.09 in - NW 3.5 mph - N/A   Clear
1:30 AM 66.2 °F - 62.6 °F 88% 30.09 in - Variable 2.3 mph - N/A   Clear
2:00 AM 66.2 °F - 62.6 °F 88% 30.09 in - Variable 2.3 mph - N/A   Clear
2:30 AM 66.2 °F - 62.6 °F 88% 30.09 in - West 3.5 mph - N/A   Clear
3:00 AM 69 °F - 64 °F 80% 30.09 in 11 mi Calm Calm - -  
3:00 AM 66.2 °F - 64.4 °F 94% 30.09 in - West 6.9 mph - N/A   Clear
3:30 AM 68.0 °F - 66.2 °F 94% 30.09 in - West 4.6 mph - N/A   Clear
4:00 AM 66.2 °F - 64.4 °F 94% 30.09 in - South 2.3 mph - N/A   Clear
4:30 AM 66.2 °F - 64.4 °F 94% 30.09 in - SW 2.3 mph - N/A   Clear
5:00 AM 64.4 °F - 62.6 °F 94% 30.09 in - SW 5.8 mph - N/A   Clear
5:30 AM 64.4 °F - 62.6 °F 94% 30.09 in - WSW 4.6 mph - N/A   Clear
6:00 AM 67 °F - 63 °F 81% 30.09 in 11 mi WSW 4.5 mph - -  
6:00 AM 64.4 °F - 62.6 °F 94% 30.09 in - West 4.6 mph - N/A   Clear
6:30 AM 64.4 °F - 60.8 °F 88% 30.09 in - SW 3.5 mph - N/A   Clear
7:00 AM 64.4 °F - 62.6 °F 94% 30.09 in - SW 4.6 mph - N/A   Clear
7:30 AM 66.2 °F - 62.6 °F 88% 30.09 in - SW 3.5 mph - N/A   Clear
8:00 AM 68.0 °F - 60.8 °F 78% 30.09 in - WSW 3.5 mph - N/A   Clear
8:30 AM 69.8 °F - 64.4 °F 83% 30.09 in - WSW 5.8 mph - N/A   Clear
9:00 AM 70 °F - 63 °F 72% 30.10 in 11 mi SW 4.5 mph - -  
9:00 AM 73.4 °F - 64.4 °F 73% 30.09 in - SW 5.8 mph - N/A   Clear
9:30 AM 75.2 °F - 64.4 °F 69% 30.09 in - WSW 5.8 mph - N/A   Clear
10:00 AM 77.0 °F - 64.4 °F 65% 30.09 in - SW 4.6 mph - N/A   Clear
10:30 AM 78.8 °F - 64.4 °F 61% 30.09 in - SSE 5.8 mph - N/A   Clear
11:00 AM 78.8 °F - 66.2 °F 65% 30.09 in - SSE 6.9 mph - N/A   Clear
11:30 AM 80.6 °F 82.3 °F 64.4 °F 58% 30.09 in - SSE 6.9 mph - N/A   Clear
12:00 PM 81 °F - 65 °F 50% 30.09 in 12 mi NE 4.5 mph - -   Scattered Clouds
12:00 PM 82.4 °F 82.0 °F 57.2 °F 42% 30.09 in 6.2 mi SE 8.1 mph - N/A   Partly Cloudy
12:30 PM 84.2 °F 82.8 °F 53.6 °F 35% 30.09 in 6.2 mi SE 10.4 mph - N/A   Partly Cloudy
1:00 PM 84.2 °F - 50.0 °F 30% 30.09 in 6.2 mi SE 10.4 mph - N/A   Partly Cloudy
1:30 PM 84.2 °F 83.5 °F 57.2 °F 40% 30.09 in 6.2 mi ESE 12.7 mph - N/A   Partly Cloudy
2:00 PM 82.4 °F 82.9 °F 60.8 °F 48% 30.09 in 6.2 mi ESE 15.0 mph - N/A   Partly Cloudy
2:30 PM 82.4 °F 83.4 °F 62.6 °F 51% 30.09 in 6.2 mi ESE 15.0 mph - N/A   Partly Cloudy
3:00 PM 80 °F - 68 °F 59% 30.08 in 12 mi ENE 26.8 mph - -   Scattered Clouds
3:00 PM 82.4 °F 83.4 °F 62.6 °F 51% 30.09 in 6.2 mi ESE 16.1 mph - N/A   Partly Cloudy
3:30 PM 82.4 °F 83.4 °F 62.6 °F 51% 30.09 in 6.2 mi ESE 13.8 mph - N/A   Partly Cloudy
4:00 PM 82.4 °F 82.9 °F 60.8 °F 48% 30.06 in 6.2 mi ESE 13.8 mph - N/A   Partly Cloudy
4:30 PM 82.4 °F 83.9 °F 64.4 °F 54% 30.06 in 6.2 mi ESE 13.8 mph - N/A   Partly Cloudy
5:00 PM 82.4 °F 83.4 °F 62.6 °F 51% 30.06 in 6.2 mi ESE 13.8 mph - N/A   Partly Cloudy
5:30 PM 82.4 °F 83.9 °F 64.4 °F 54% 30.06 in 6.2 mi ESE 12.7 mph - N/A   Partly Cloudy
6:00 PM 81 °F - 63 °F 44% 30.05 in 12 mi ESE 13.4 mph - -  
6:00 PM 80.6 °F 81.8 °F 62.6 °F 54% 30.06 in 6.2 mi ESE 12.7 mph - N/A   Partly Cloudy
6:30 PM 80.6 °F 82.3 °F 64.4 °F 58% 30.06 in - ESE 11.5 mph - N/A   Clear
7:00 PM 80.6 °F 82.7 °F 66.2 °F 61% 30.06 in - East 11.5 mph - N/A   Clear
7:30 PM 80.6 °F 82.7 °F 66.2 °F 61% 30.06 in - East 11.5 mph - N/A   Clear
8:00 PM 78.8 °F - 66.2 °F 65% 30.06 in - East 8.1 mph - N/A   Clear
8:30 PM 77.0 °F - 66.2 °F 69% 30.06 in - East 8.1 mph - N/A   Clear
9:00 PM 78 °F - 69 °F 68% 30.06 in 12 mi ENE 11.2 mph - -   Clear
9:00 PM 75.2 °F - 66.2 °F 73% 30.06 in - East 8.1 mph - N/A   Clear
9:30 PM 73.4 °F - 66.2 °F 78% 30.06 in - East 8.1 mph - N/A   Clear
10:00 PM 71.6 °F - 66.2 °F 83% 30.06 in - East 9.2 mph - N/A   Clear
10:30 PM 71.6 °F - 66.2 °F 83% 30.06 in - East 8.1 mph - N/A   Clear
11:00 PM 69.8 °F - 64.4 °F 83% 30.09 in - East 6.9 mph - N/A   Clear
11:30 PM 68.0 °F - 66.2 °F 94% 30.09 in - NE 6.9 mph - N/A   Clear